This is the latest recevied weather packets stored in our database for station/object KC8SWY-15. If no packets are shown the sender has not sent any weather packets the latest 10 day(s).
| Time | Temp. | Humidity | Pressure | Rain* | Wind** | Luminosity | Snow |
|---|---|---|---|---|---|---|---|
| 1777940672 | 17.78° C | 79% | 998.6 hPa | 1.02 mm | - | - | - |
| 1777940372 | 17.78° C | 76% | 998.9 hPa | 1.02 mm | - | - | - |
| 1777940072 | 18.33° C | 73% | 998.9 hPa | 0.76 mm | - | - | - |
| 1777939772 | 19.44° C | 69% | 999 hPa | 0.51 mm | - | - | - |
| 1777939472 | 20° C | 65% | 999 hPa | 0 mm | - | - | - |
| 1777939172 | 20° C | 64% | 998.9 hPa | 0 mm | - | - | - |
| 1777938872 | 20.56° C | 62% | 998.9 hPa | 0 mm | - | - | - |
| 1777938572 | 21.11° C | 60% | 998.6 hPa | 0 mm | - | - | - |
| 1777938272 | 21.67° C | 57% | 998.6 hPa | 0 mm | - | - | - |
| 1777937972 | 21.67° C | 54% | 998.4 hPa | 0 mm | - | - | - |
| 1777937672 | 22.22° C | 51% | 998.5 hPa | 0 mm | - | - | - |
| 1777937372 | 22.78° C | 48% | 998.7 hPa | 0 mm | - | - | - |
| 1777937072 | 23.33° C | 45% | 998.8 hPa | 0 mm | - | - | - |
| 1777936772 | 23.89° C | 41% | 998.6 hPa | 0 mm | - | - | - |
| 1777936472 | 23.89° C | 40% | 998.4 hPa | 0 mm | - | - | - |
| 1777936172 | 23.89° C | 41% | 998.3 hPa | 0 mm | - | - | - |
| 1777935872 | 24.44° C | 39% | 998.3 hPa | 0 mm | - | - | - |
| 1777935572 | 24.44° C | 40% | 998.4 hPa | 0 mm | - | - | - |
| 1777935272 | 23.89° C | 39% | 998.5 hPa | 0 mm | - | - | - |
| 1777934972 | 24.44° C | 38% | 998.5 hPa | 0 mm | - | - | - |
| 1777934672 | 24.44° C | 38% | 998.5 hPa | 0 mm | - | - | - |
| 1777934372 | 25° C | 37% | 998.5 hPa | 0 mm | - | - | - |
| 1777934072 | 25° C | 38% | 998.4 hPa | 0 mm | - | - | - |
| 1777933772 | 25° C | 39% | 998.5 hPa | 0 mm | - | - | - |
| 1777933472 | 24.44° C | 39% | 998.6 hPa | 0 mm | - | - | - |
* Rain latest hour (hover to see other rain measurements)
** Current wind speed in m/s (hover to see current wind gust speed)